TimeEST,TemperatureF,Dew PointF,Humidity,Sea Level PressureIn,VisibilityMPH,Wind Direction,Wind SpeedMPH,Gust SpeedMPH,PrecipitationIn,Events,Conditions,WindDirDegrees,DateUTC
12:15 AM,46.9,46.0,97,29.61,4.0,South,8.1,-,N/A,,Drizzle,180,2012-12-16 05:15:00
12:35 AM,47.5,46.6,97,29.61,5.0,SSW,8.1,-,N/A,,Overcast,200,2012-12-16 05:35:00
12:56 AM,47.7,46.8,97,29.60,4.0,SSW,8.1,-,N/A,,Overcast,200,2012-12-16 05:56:00
1:15 AM,47.8,46.9,97,29.60,5.0,SSW,6.9,-,N/A,Rain,Rain,200,2012-12-16 06:15:00
1:55 AM,48.2,47.3,97,29.59,2.5,South,5.8,-,0.01,,Drizzle,190,2012-12-16 06:55:00
2:16 AM,47.8,47.3,98,29.59,2.0,South,4.6,-,N/A,,Drizzle,190,2012-12-16 07:16:00
2:35 AM,48.0,47.5,98,29.59,2.5,SSW,6.9,-,0.01,,Drizzle,200,2012-12-16 07:35:00
2:56 AM,48.4,48.2,99,29.59,4.0,SSW,9.2,-,0.01,,Drizzle,210,2012-12-16 07:56:00
3:15 AM,48.7,48.4,99,29.59,7.0,SSW,8.1,-,N/A,,Overcast,200,2012-12-16 08:15:00
3:55 AM,48.7,48.4,99,29.59,7.0,SSW,5.8,-,N/A,,Overcast,200,2012-12-16 08:55:00
4:15 AM,49.1,48.4,97,29.58,7.0,SSW,5.8,-,N/A,,Overcast,200,2012-12-16 09:15:00
4:35 AM,49.1,48.4,97,29.58,7.0,SSW,5.8,-,N/A,,Overcast,200,2012-12-16 09:35:00
4:56 AM,49.1,48.4,97,29.58,7.0,SSW,8.1,-,N/A,,Overcast,200,2012-12-16 09:56:00
5:15 AM,49.1,48.2,97,29.58,7.0,SSW,5.8,-,N/A,,Overcast,200,2012-12-16 10:15:00
5:35 AM,49.1,48.2,97,29.58,7.0,SSW,4.6,-,N/A,,Overcast,200,2012-12-16 10:35:00
5:55 AM,49.1,48.2,97,29.58,7.0,SSW,8.1,-,N/A,,Overcast,210,2012-12-16 10:55:00
6:15 AM,49.1,48.2,97,29.58,7.0,SSW,5.8,-,N/A,,Overcast,210,2012-12-16 11:15:00
6:35 AM,49.1,47.8,95,29.58,10.0,SSW,6.9,-,N/A,,Overcast,210,2012-12-16 11:35:00
6:55 AM,49.1,47.8,95,29.58,10.0,SSW,5.8,-,N/A,,Overcast,210,2012-12-16 11:55:00
7:15 AM,49.1,47.7,95,29.59,10.0,SSW,8.1,-,N/A,,Overcast,200,2012-12-16 12:15:00
7:35 AM,49.1,47.7,95,29.59,10.0,SSW,6.9,-,N/A,,Overcast,200,2012-12-16 12:35:00
8:15 AM,48.7,47.5,95,29.59,5.0,South,6.9,-,N/A,,Overcast,190,2012-12-16 13:15:00
8:36 AM,49.1,47.7,95,29.59,5.0,SSW,8.1,-,N/A,,Overcast,200,2012-12-16 13:36:00
8:55 AM,49.1,47.8,95,29.59,7.0,SSW,5.8,-,N/A,,Overcast,200,2012-12-16 13:55:00
9:15 AM,49.1,47.7,95,29.59,1.5,SSW,4.6,-,N/A,,Light Drizzle,210,2012-12-16 14:15:00
9:36 AM,49.1,47.8,95,29.59,2.0,Calm,Calm,-,N/A,,Overcast,0,2012-12-16 14:36:00
9:55 AM,49.1,47.8,95,29.59,1.8,WSW,6.9,-,0.01,Rain,Heavy Rain,240,2012-12-16 14:55:00
10:15 AM,48.6,47.5,96,29.60,4.0,WSW,6.9,-,N/A,,Overcast,240,2012-12-16 15:15:00
10:36 AM,48.6,47.5,96,29.60,4.0,SW,6.9,-,N/A,,Overcast,230,2012-12-16 15:36:00
10:55 AM,48.7,47.7,96,29.60,5.0,SW,5.8,-,N/A,,Overcast,220,2012-12-16 15:55:00
11:15 AM,48.6,47.5,96,29.61,10.0,SW,8.1,-,N/A,,Overcast,230,2012-12-16 16:15:00
11:35 AM,49.1,47.7,95,29.60,7.0,SW,8.1,-,N/A,,Overcast,220,2012-12-16 16:35:00
11:55 AM,49.1,47.7,95,29.60,10.0,SW,8.1,-,N/A,,Overcast,220,2012-12-16 16:55:00
12:15 PM,49.1,47.5,94,29.59,7.0,SW,8.1,-,N/A,,Overcast,220,2012-12-16 17:15:00
12:35 PM,48.6,47.1,95,29.58,7.0,SW,8.1,-,N/A,,Overcast,220,2012-12-16 17:35:00
12:55 PM,48.2,46.4,93,29.58,2.5,SW,8.1,-,N/A,,Drizzle,220,2012-12-16 17:55:00
1:15 PM,47.8,46.4,95,29.58,4.0,SW,6.9,-,N/A,,Light Drizzle,220,2012-12-16 18:15:00
1:35 PM,48.2,46.6,94,29.57,3.0,SW,6.9,-,N/A,Rain,Light Rain,220,2012-12-16 18:35:00
1:55 PM,48.4,46.9,95,29.58,10.0,SW,6.9,-,N/A,,Overcast,220,2012-12-16 18:55:00
2:15 PM,48.4,46.6,93,29.57,5.0,SW,8.1,-,N/A,,Overcast,230,2012-12-16 19:15:00
2:36 PM,47.3,45.5,93,29.57,2.5,West,8.1,-,0.01,Rain,Light Rain,260,2012-12-16 19:36:00
2:55 PM,46.6,45.1,95,29.58,2.5,WSW,9.2,-,0.01,Rain,Rain,240,2012-12-16 19:55:00
3:15 PM,46.4,45.1,95,29.57,2.5,West,6.9,-,N/A,,Light Drizzle,260,2012-12-16 20:15:00
3:35 PM,46.4,45.0,95,29.57,7.0,WSW,5.8,-,N/A,,Overcast,250,2012-12-16 20:35:00
3:55 PM,45.5,44.1,95,29.57,10.0,WSW,6.9,-,N/A,,Overcast,240,2012-12-16 20:55:00
4:15 PM,45.3,43.7,94,29.57,10.0,WSW,4.6,-,N/A,,Overcast,240,2012-12-16 21:15:00
4:36 PM,45.1,43.2,93,29.58,10.0,SW,5.8,-,N/A,,Overcast,230,2012-12-16 21:36:00
5:15 PM,45.0,42.8,92,29.61,10.0,SW,5.8,-,N/A,,Overcast,220,2012-12-16 22:15:00
5:35 PM,45.0,42.8,92,29.60,10.0,WSW,5.8,-,N/A,,Overcast,240,2012-12-16 22:35:00
5:55 PM,44.8,42.8,93,29.61,10.0,WSW,9.2,-,N/A,,Overcast,250,2012-12-16 22:55:00
6:16 PM,44.6,42.1,91,29.61,10.0,WSW,5.8,-,N/A,,Overcast,240,2012-12-16 23:16:00
6:35 PM,44.2,41.9,91,29.61,10.0,WSW,5.8,-,N/A,,Overcast,250,2012-12-16 23:35:00
6:55 PM,44.1,41.5,91,29.61,10.0,WSW,6.9,-,N/A,,Overcast,240,2012-12-16 23:55:00
7:15 PM,43.7,41.4,91,29.61,10.0,WSW,6.9,-,N/A,,Overcast,240,2012-12-17 00:15:00
7:35 PM,43.7,41.2,91,29.62,7.0,West,8.1,-,N/A,,Overcast,260,2012-12-17 00:35:00
7:55 PM,43.0,41.0,93,29.63,4.0,West,13.8,-,0.01,,Overcast,260,2012-12-17 00:55:00
8:16 PM,42.3,40.3,93,29.63,7.0,WSW,6.9,-,N/A,,Overcast,240,2012-12-17 01:16:00
8:35 PM,42.3,40.3,93,29.63,10.0,SW,5.8,-,N/A,,Overcast,230,2012-12-17 01:35:00
8:56 PM,42.1,40.1,93,29.63,10.0,SW,4.6,-,N/A,,Overcast,230,2012-12-17 01:56:00
9:15 PM,42.1,40.1,93,29.64,7.0,SW,5.8,-,N/A,,Overcast,230,2012-12-17 02:15:00
9:35 PM,41.7,39.7,93,29.64,7.0,WSW,9.2,-,N/A,,Overcast,240,2012-12-17 02:35:00
9:55 PM,41.4,39.7,94,29.64,4.0,WSW,6.9,-,N/A,,Light Drizzle,240,2012-12-17 02:55:00
10:15 PM,41.2,39.9,95,29.64,7.0,SW,6.9,-,N/A,,Light Drizzle,230,2012-12-17 03:15:00
10:35 PM,41.2,40.1,96,29.65,7.0,SW,6.9,-,N/A,,Overcast,230,2012-12-17 03:35:00
10:55 PM,41.2,40.1,96,29.65,5.0,SW,5.8,-,N/A,,Overcast,230,2012-12-17 03:55:00
11:15 PM,41.2,40.1,96,29.65,10.0,WSW,6.9,-,N/A,,Overcast,250,2012-12-17 04:15:00
11:35 PM,41.2,40.1,96,29.65,10.0,WSW,8.1,-,N/A,,Overcast,250,2012-12-17 04:35:00
11:55 PM,41.2,39.7,95,29.65,10.0,WSW,6.9,-,N/A,,Overcast,250,2012-12-17 04:55:00